When you browse on this site, cookies collect data to enhance your experience and personalize the content and advertising you see.
Visit our Privacy Policy to learn more. By continuing to use the site, you agree to this use of cookies and data.
  • In Portugal
  • List of Countries
  • For 7 days
  • Water Temperature
  • Satellite Maps
  • Weather Map
  • Weather Widgets
  • user-avatar
    Login

    Hourly Weather Graz

    Today, 20 July, Saturday

    Time Temperature Precipitation Wind Pressure Humidity
    00:00 +19°C° 0 mm 1 mps 725 mmHg 87%
    01:00 +19°C° 0 mm 1 mps 725 mmHg 87%
    02:00 +18°C° 0 mm 1 mps 725 mmHg 87%
    03:00 +18°C° 0 mm 1 mps 725 mmHg 88%
    04:00 +18°C° 0 mm 1 mps 725 mmHg 88%
    05:00 +19°C° 0 mm 1 mps 725 mmHg 85%
    06:00 +21°C° 0 mm 1 mps 725 mmHg 81%
    07:00 +22°C° 0 mm 1 mps 725 mmHg 78%
    08:00 +24°C° 0 mm 1 mps 726 mmHg 68%
    09:00 +27°C° 0 mm 1 mps 726 mmHg 59%
    10:00 +29°C° 0 mm 1 mps 726 mmHg 49%
    11:00 +30°C° 0 mm 1 mps 726 mmHg 46%
    12:00 +31°C° 0 mm 2 mps 726 mmHg 43%
    13:00 +32°C° 0 mm 2 mps 726 mmHg 40%
    14:00 +32°C° 0 mm 2 mps 725 mmHg 40%
    15:00 +32°C° 0 mm 2 mps 725 mmHg 40%
    16:00 +32°C° 0 mm 2 mps 725 mmHg 40%
    17:00 +30°C° 0 mm 1 mps 725 mmHg 49%
    18:00 +28°C° 0 mm 1 mps 725 mmHg 58%
    19:00 +26°C° 0 mm 1 mps 726 mmHg 67%
    20:00 +25°C° 0.1 mm 1 mps 726 mmHg 69%
    21:00 +25°C° 0.1 mm 1 mps 726 mmHg 71%
    22:00 +24°C° 0.1 mm 1 mps 726 mmHg 73%
    23:00 +23°C° 0 mm 1 mps 726 mmHg 74%

    Tomorrow, 21 July, Sunday

    Time Temperature Precipitation Wind Pressure Humidity
    00:00 +23°C° 0 mm 1 mps 726 mmHg 76%
    01:00 +22°C° 0 mm 1 mps 726 mmHg 78%
    02:00 +22°C° 0 mm 1 mps 726 mmHg 78%
    03:00 +20°C° 0 mm 2 mps 726 mmHg 79%
    04:00 +20°C° 0 mm 2 mps 726 mmHg 79%
    05:00 +22°C° 0 mm 1 mps 726 mmHg 76%
    06:00 +23°C° 0 mm 1 mps 727 mmHg 73%
    07:00 +24°C° 0 mm 1 mps 727 mmHg 71%
    08:00 +27°C° 0 mm 1 mps 727 mmHg 62%
    09:00 +29°C° 0 mm 1 mps 728 mmHg 54%
    10:00 +31°C° 0 mm 1 mps 728 mmHg 45%
    11:00 +31°C° 0.1 mm 1 mps 728 mmHg 44%
    12:00 +32°C° 0.1 mm 2 mps 728 mmHg 44%
    13:00 +32°C° 0.1 mm 2 mps 728 mmHg 43%
    14:00 +30°C° 0.9 mm 2 mps 728 mmHg 53%
    15:00 +28°C° 0.9 mm 3 mps 728 mmHg 64%
    16:00 +25°C° 0.9 mm 3 mps 728 mmHg 75%
    17:00 +24°C° 1.7 mm 2 mps 728 mmHg 80%
    18:00 +23°C° 1.7 mm 1 mps 728 mmHg 85%
    19:00 +20°C° 1.7 mm 0 mps 729 mmHg 90%
    20:00 +22°C° 0.3 mm 1 mps 729 mmHg 90%
    21:00 +21°C° 0.3 mm 1 mps 729 mmHg 90%
    22:00 +21°C° 0.3 mm 1 mps 730 mmHg 91%
    23:00 +20°C° 0 mm 1 mps 730 mmHg 91%

    Day after tomorrow, 22 July, Monday

    Time Temperature Precipitation Wind Pressure Humidity
    00:00 +20°C° 0 mm 1 mps 730 mmHg 91%
    01:00 +20°C° 0 mm 1 mps 730 mmHg 91%
    02:00 +19°C° 0 mm 1 mps 730 mmHg 90%
    03:00 +19°C° 0 mm 1 mps 730 mmHg 90%
    04:00 +19°C° 0 mm 1 mps 730 mmHg 90%
    05:00 +20°C° 0 mm 1 mps 730 mmHg 88%
    06:00 +21°C° 0 mm 1 mps 730 mmHg 85%
    07:00 +20°C° 0 mm 0 mps 731 mmHg 83%
    08:00 +24°C° 0 mm 1 mps 731 mmHg 75%
    09:00 +26°C° 0 mm 1 mps 731 mmHg 66%
    10:00 +28°C° 0 mm 1 mps 731 mmHg 57%
    11:00 +28°C° 0.2 mm 1 mps 731 mmHg 57%
    12:00 +29°C° 0.2 mm 1 mps 731 mmHg 57%
    13:00 +29°C° 0.2 mm 1 mps 730 mmHg 57%
    14:00 +29°C° 0.3 mm 1 mps 730 mmHg 58%
    15:00 +29°C° 0.3 mm 1 mps 730 mmHg 60%
    16:00 +29°C° 0.3 mm 1 mps 730 mmHg 61%
    17:00 +27°C° 0.2 mm 1 mps 729 mmHg 68%
    18:00 +26°C° 0.2 mm 1 mps 729 mmHg 76%
    19:00 +24°C° 0.2 mm 1 mps 729 mmHg 83%
    20:00 +23°C° 0.1 mm 1 mps 730 mmHg 85%
    21:00 +22°C° 0.1 mm 1 mps 730 mmHg 86%
    22:00 +21°C° 0.1 mm 1 mps 730 mmHg 88%
    23:00 +21°C° 0 mm 1 mps 730 mmHg 88%

    23 July, Tuesday

    Time Temperature Precipitation Wind Pressure Humidity
    00:00 +21°C° 0 mm 1 mps 730 mmHg 89%
    01:00 +20°C° 0 mm 1 mps 730 mmHg 89%
    02:00 +20°C° 0 mm 1 mps 729 mmHg 90%
    03:00 +20°C° 0 mm 1 mps 729 mmHg 90%
    04:00 +19°C° 0 mm 1 mps 729 mmHg 90%
    05:00 +20°C° 0 mm 1 mps 729 mmHg 87%
    06:00 +19°C° 0 mm 0 mps 729 mmHg 84%
    07:00 +21°C° 0 mm 0 mps 730 mmHg 82%
    08:00 +23°C° 0 mm 0 mps 730 mmHg 71%
    09:00 +27°C° 0 mm 1 mps 730 mmHg 61%
    10:00 +29°C° 0 mm 1 mps 730 mmHg 51%
    11:00 +29°C° 0 mm 1 mps 730 mmHg 49%
    12:00 +30°C° 0 mm 1 mps 729 mmHg 47%
    13:00 +30°C° 0 mm 1 mps 729 mmHg 45%
    14:00 +30°C° 0 mm 1 mps 729 mmHg 46%
    15:00 +30°C° 0 mm 2 mps 728 mmHg 47%
    16:00 +30°C° 0 mm 2 mps 728 mmHg 48%
    17:00 +28°C° 0 mm 1 mps 728 mmHg 56%
    18:00 +27°C° 0 mm 1 mps 728 mmHg 65%
    19:00 +25°C° 0 mm 1 mps 728 mmHg 74%
    20:00 +24°C° 0 mm 1 mps 728 mmHg 77%
    21:00 +21°C° 0 mm 0 mps 728 mmHg 80%
    22:00 +20°C° 0 mm 0 mps 728 mmHg 83%
    23:00 +19°C° 0 mm 0 mps 728 mmHg 84%

    24 July, Wednesday

    Time Temperature Precipitation Wind Pressure Humidity
    00:00 +19°C° 0 mm 0 mps 728 mmHg 84%
    01:00 +18°C° 0 mm 0 mps 728 mmHg 85%
    02:00 +18°C° 0 mm 0 mps 728 mmHg 85%
    03:00 +18°C° 0 mm 0 mps 728 mmHg 86%
    04:00 +17°C° 0 mm 0 mps 728 mmHg 86%
    05:00 +19°C° 0 mm 0 mps 728 mmHg 81%
    06:00 +20°C° 0 mm 0 mps 728 mmHg 76%
    07:00 +22°C° 0 mm 0 mps 728 mmHg 71%
    08:00 +24°C° 0 mm 0 mps 728 mmHg 64%
    09:00 +28°C° 0 mm 1 mps 728 mmHg 58%
    10:00 +30°C° 0 mm 1 mps 728 mmHg 52%
    11:00 +30°C° 0 mm 1 mps 728 mmHg 49%
    12:00 +31°C° 0 mm 1 mps 728 mmHg 46%
    13:00 +32°C° 0 mm 2 mps 728 mmHg 44%
    14:00 +32°C° 0 mm 2 mps 727 mmHg 44%
    15:00 +32°C° 0 mm 2 mps 727 mmHg 45%
    16:00 +31°C° 0 mm 2 mps 727 mmHg 45%
    17:00 +30°C° 0 mm 1 mps 727 mmHg 54%
    18:00 +28°C° 0 mm 1 mps 727 mmHg 62%
    19:00 +26°C° 0 mm 1 mps 727 mmHg 70%
    20:00 +25°C° 0 mm 1 mps 727 mmHg 73%
    21:00 +22°C° 0 mm 0 mps 727 mmHg 75%
    22:00 +21°C° 0 mm 0 mps 727 mmHg 77%
    23:00 +21°C° 0 mm 0 mps 727 mmHg 78%

    25 July, Thursday

    Time Temperature Precipitation Wind Pressure Humidity
    00:00 +20°C° 0 mm 0 mps 727 mmHg 79%
    01:00 +20°C° 0 mm 0 mps 727 mmHg 80%
    02:00 +20°C° 0 mm 0 mps 727 mmHg 81%
    03:00 +19°C° 0 mm 0 mps 727 mmHg 82%
    04:00 +19°C° 0 mm 0 mps 727 mmHg 83%
    05:00 +20°C° 0 mm 0 mps 727 mmHg 79%
    06:00 +22°C° 0 mm 0 mps 728 mmHg 74%
    07:00 +24°C° 0 mm 0 mps 728 mmHg 69%
    08:00 +25°C° 0 mm 0 mps 728 mmHg 63%
    09:00 +29°C° 0 mm 1 mps 728 mmHg 56%
    10:00 +30°C° 0 mm 1 mps 728 mmHg 50%
    11:00 +31°C° 0 mm 2 mps 728 mmHg 47%
    12:00 +32°C° 0 mm 2 mps 728 mmHg 44%
    13:00 +34°C° 0 mm 2 mps 728 mmHg 41%
    14:00 +34°C° 0 mm 2 mps 727 mmHg 41%
    15:00 +32°C° 0 mm 2 mps 727 mmHg 41%
    16:00 +32°C° 0 mm 2 mps 727 mmHg 41%
    17:00 +30°C° 0 mm 2 mps 727 mmHg 50%
    18:00 +28°C° 0 mm 1 mps 727 mmHg 58%
    19:00 +26°C° 0 mm 1 mps 726 mmHg 67%
    20:00 +25°C° 0 mm 1 mps 727 mmHg 68%
    21:00 +24°C° 0 mm 1 mps 727 mmHg 70%
    22:00 +21°C° 0 mm 0 mps 727 mmHg 72%
    23:00 +21°C° 0 mm 0 mps 727 mmHg 73%
    Show more